Regional Weather Roundup
Issued by NWS

Home | Current Version | Previous Version | Text Only | Print | Product List | Glossary On
Versions: 1 2 3 4 5 6 7 8 9 10 11 12 13 14 15 16 17 18 19 20 21 22 23 24 25 26 27 28 29 30 31 32 33 34 35 36 37 38 39 40 41 42 43 44 45 46 47 48 49 50
000
ASUS43 KDMX 130907
RWRIA

WEATHER ROUNDUP FOR IOWA
NATIONAL WEATHER SERVICE DES MOINES IA
400 AM CDT SUN JUL 13 2014

NOTE: "FAIR" INDICATES FEW OR NO CLOUDS BELOW 12,000 FEET WITH NO
SIGNIFICANT WEATHER AND/OR OBSTRUCTIONS TO VISIBILITY.

* - THESE STATIONS ARE NOT NWS STATIONS...THUS NOT UNDER NWS
QUALITY CONTROL.  THEY ALSO DO NOT REPORT WEATHER SUCH
AS PRECIPITATION OR FOG.

IAZ001>003-012>014-020>022-031>034-043>046-131000-
   NORTHWEST IOWA

CITY           SKY/WX    TMP DP  RH WIND       PRES   REMARKS
CARROLL *      CLEAR     63  63 100 CALM      30.02R FOG
CHEROKEE *     FOG       61  61 100 CALM      30.03R VSB 1/2
DENISON *      FOG       63  63 100 S3        30.02S VSB 1/4
LE MARS *      CLEAR     63  63 100 CALM      30.03S
ORANGE CITY *  CLEAR     64  63  94 CALM      30.03R
SHELDON *      CLEAR     61  61 100 CALM      30.01R FOG
SIOUX CITY     PTCLDY    64  63  96 SW3       30.03S FOG
SPENCER        CLEAR     61  59  93 S6        30.01S FOG
STORM LAKE *   CLEAR     64  64 100 NW5       30.04R
$$

IAZ055>058-069>071-079>083-090>094-131000-
   SOUTHWEST IOWA

CITY           SKY/WX    TMP DP  RH WIND       PRES   REMARKS
ATLANTIC *     FOG       63  63 100 CALM      30.01F VSB 1/2
AUDUBON *      CLEAR     64  63  94 CALM      30.03F
CLARINDA *     CLEAR     70  68  94 N3        30.04R
COUNCIL BLFS *   N/A     66  66 100 SW6       30.02F
CRESTON *      CLEAR     66  66 100 CALM      30.02S
HARLAN  *      CLEAR     63  63 100 CALM      30.06S
LAMONI         CLOUDY    69  68  96 CALM      30.01R
RED OAK *      PTCLDY    68  66  94 S5        30.03S
SHENANDOAH *   CLEAR     70  68  94 CALM      30.03S
$$

IAZ047>049-059>061-072>074-084-131000-
   CENTRAL IOWA

CITY           SKY/WX    TMP DP  RH WIND       PRES   REMARKS
AMES           PTCLDY    65  64  97 W7        29.99S
ANKENY *       FOG       64  64 100 CALM      29.98S VSB 1
CHARITON *     CLOUDY    68  68 100 CALM      30.00S FOG
DES MOINES     MOCLDY    67  64  90 W5        29.98F
GRINNELL*      CLOUDY    66  66 100 SW3       30.00S FOG
KNOXVILLE *    FOG       66  66 100 W3        29.98S VSB 1
MARSHALLTOWN   FOG       63  62  97 W6        29.97S VSB 1/4
PELLA *        CLOUDY    66  66 100 CALM      30.00S
PERRY *          N/A     64  63  94 W5        30.00S FOG
$$

IAZ004>006-015-016-023>025-035-036-131000-
   NORTH CENTRAL IOWA

CITY           SKY/WX    TMP DP  RH WIND       PRES   REMARKS
ALGONA *       CLEAR     64  64 100 SW8       30.00S
CLARION *      FOG       61  61 100 CALM      29.99S VSB 1/4
ESTHERVILLE    CLEAR     64  63  96 W5        29.99R
FORT DODGE *   CLOUDY    63  61  94 CALM      30.01R VSB<1/4
MASON CITY     FOG       60  59  96 W5        29.99S VSB 3/4
FOREST CITY *  CLEAR     63  63 100 W3        29.99S FOG
IOWA FALLS *   FOG       61  61 100 SW5       30.00R VSB 1/4
$$

IAZ007>011-017>019-026>030-037>042-050>054-066-131000-
   NORTHEAST IOWA

CITY           SKY/WX    TMP DP  RH WIND       PRES   REMARKS
CEDAR RAPIDS   CLOUDY    66  65  96 NW7       29.96S FOG
CHARLES CITY * CLOUDY    63  63 100 CALM      29.97F VSB 0
CLINTON *      MOCLDY    63  63 100 W6        29.97
DECORAH *        N/A    N/A N/A N/A MISG        N/A
DUBUQUE        CLOUDY    63  63 100 W7        29.94S
MONTICELLO *   CLOUDY    66  66 100 NW7       29.95S
OELWEIN *      FOG       64  64 100 W7        29.97S VSB 0
WATERLOO       FOG       62  61  96 CALM      29.95F VSB 1/4
$$

IAZ064-065-067-068-078-131000-
   EAST CENTRAL IOWA

CITY           SKY/WX    TMP DP  RH WIND       PRES   REMARKS
DAVENPORT        N/A     64  63  96 W5        29.95S
IOWA CITY      MOCLDY    67  66  97 W3        29.97S
MT. PLEASANT * CLOUDY    68  66  94 CALM      29.98S
MUSCATINE *    CLOUDY    68  66  94 CALM      29.96F
QUAD CITIES    CLOUDY    67  64  90 NW8       29.95R
$$

IAZ062-063-075>077-085>089-095>099-131000-
   SOUTHEAST IOWA

CITY           SKY/WX    TMP DP  RH WIND       PRES   REMARKS
BURLINGTON     CLOUDY    70  69  97 W3        29.96S
FAIRFIELD *    CLEAR     66  64  94 NW5       29.99R
FORT MADISON * CLOUDY    72  72 100 NW5       29.98S
KEOKUK *       CLOUDY    72  70  94 SW6       29.97S
OSKALOOSA *      N/A     66  64  94 CALM      29.99S FOG
CENTERVILLE *  PTCLDY    68  68 100 CALM      30.01S
OTTUMWA        FOG       66  64  93 CALM      29.99R VSB 1
WASHINGTON *   CLEAR     66  66 100 W6        29.98S
$$

ABBREVIATIONS USED IN REMARKS
   TC - TEMPERATURES IN CELSIUS
  WCI - WIND CHILL INDEX
   HX - HEAT INDEX
  VSB - VISIBILITY
$$



USA.gov is the U.S. government's official web portal to all federal, state and local government web resources and services.